Find Starlink 3515

NORAD ID: 51738 Int'l Des: 2022-016 Owner: SPXS Country: US Constellation: starlink operational
LEOCIRCULAR

リアルタイム位置

3D地球を読み込み中...

Starlink 3515について

説明を読み込み中...

次回通過

Passes for default location (London). Set your location on the main map for personalized predictions.

高度履歴

Loading altitude history...

軌道要素

1 51738U 22016AA 26125.53763104 .00000495 00000-0 49225-4 0 9994
2 51738 53.2187 63.9179 0001503 87.6002 272.5162 15.08837134232146
Epoch: May 5, 2026 • Age: 9 hours

現在のステータス

高度 540.3 km
速度 7.60 km/s
衛星直下点 25.57°N, 35.16°E
打ち上げ日 Feb 21, 2022
運用期間 4.1 years
タイプ internet

技術仕様

分類 Payload
質量 297.00 kg
乾燥質量 275.00 kg
総質量 297.00 kg
長さ 0.20 m
直径 2.80 m
スパン 9.00 m
形状 Box + pan
製造者 SPXS
バスタイプ Starlink
フェーズステータス In Orbit
所有者/国 SPXS/US

Most Searched